User: anonymous   Login
Location: Kuffner-Sternwarte
(48.2130°N, 16.2960°E)
Time: 20:56:59
(UTC+02:00)
Language:

XW-2D - Orbit

View from above orbital plane
View from above orbital plane
View from above satellite
View from above satellite

Ground track
Ground track

The orbit data is extracted from the following two-line orbital elements,

1 40907U 15049J   20220.52007700  .00000739  00000-0  41443-4 0  9995
2 40907  97.4752 220.8330 0013671 187.0624 291.9975 15.16367192270013
Epoch (UTC): 07 August 2020 12:28:54
Eccentricity: 0.0013671
inclination: 97.4752°
perigee height: 507 km
apogee height: 526 km
right ascension of ascending node: 220.8330°
argument of perigee: 187.0624°
revolutions per day: 15.16367192
mean anomaly at epoch: 291.9975°
orbit number at epoch: 27001

The dashed part of the orbit path shows where the satellite is in the earth's shadow,  

DLR